When you browse on this site, cookies collect data to enhance your experience and personalize the content and advertising you see.
Visit our Privacy Policy to learn more. By continuing to use the site, you agree to this use of cookies and data.
  • In United Kingdom
  • List of Countries
  • For 7 days
  • Water Temperature
  • Weather Map
  • Weather Widgets
  • user-avatar
    Login

    Hourly Weather Didcot

    Today, 18 September, Wednesday

    Time Temperature Precipitation Wind Pressure Humidity
    00:00 +9°C° 0 mm 2 mps 765 mmHg 85%
    01:00 +9°C° 0 mm 2 mps 764 mmHg 85%
    02:00 +8°C° 0 mm 2 mps 764 mmHg 85%
    03:00 +9°C° 0 mm 1 mps 764 mmHg 85%
    04:00 +9°C° 0 mm 1 mps 765 mmHg 85%
    05:00 +9°C° 0 mm 1 mps 765 mmHg 85%
    06:00 +8°C° 0 mm 1 mps 765 mmHg 81%
    07:00 +10°C° 0 mm 1 mps 765 mmHg 75%
    08:00 +12°C° 0 mm 1 mps 766 mmHg 68%
    09:00 +14°C° 0 mm 1 mps 766 mmHg 61%
    10:00 +15°C° 0 mm 1 mps 766 mmHg 57%
    11:00 +16°C° 0 mm 2 mps 766 mmHg 53%
    12:00 +17°C° 0 mm 2 mps 765 mmHg 50%
    13:00 +18°C° 0 mm 2 mps 765 mmHg 49%
    14:00 +18°C° 0 mm 2 mps 765 mmHg 49%
    15:00 +19°C° 0 mm 2 mps 765 mmHg 48%
    16:00 +18°C° 0 mm 2 mps 765 mmHg 54%
    17:00 +16°C° 0 mm 2 mps 765 mmHg 60%
    18:00 +15°C° 0 mm 1 mps 765 mmHg 65%
    19:00 +14°C° 0 mm 1 mps 765 mmHg 68%
    20:00 +13°C° 0 mm 1 mps 766 mmHg 71%
    21:00 +13°C° 0 mm 1 mps 766 mmHg 74%
    22:00 +12°C° 0 mm 1 mps 766 mmHg 76%
    23:00 +12°C° 0 mm 1 mps 766 mmHg 78%

    Tomorrow, 19 September, Thursday

    Time Temperature Precipitation Wind Pressure Humidity
    00:00 +11°C° 0 mm 1 mps 766 mmHg 81%
    01:00 +10°C° 0 mm 0 mps 766 mmHg 82%
    02:00 +10°C° 0 mm 0 mps 766 mmHg 84%
    03:00 +9°C° 0 mm 0 mps 766 mmHg 85%
    04:00 +9°C° 0 mm 0 mps 766 mmHg 86%
    05:00 +9°C° 0 mm 0 mps 766 mmHg 86%
    06:00 +9°C° 0 mm 0 mps 766 mmHg 87%
    07:00 +11°C° 0 mm 0 mps 766 mmHg 81%
    08:00 +14°C° 0 mm 1 mps 766 mmHg 74%
    09:00 +16°C° 0 mm 1 mps 767 mmHg 67%
    10:00 +18°C° 0 mm 1 mps 767 mmHg 64%
    11:00 +19°C° 0 mm 1 mps 767 mmHg 60%
    12:00 +19°C° 0 mm 2 mps 766 mmHg 56%
    13:00 +20°C° 0 mm 2 mps 766 mmHg 55%
    14:00 +20°C° 0 mm 2 mps 766 mmHg 54%
    15:00 +21°C° 0 mm 2 mps 766 mmHg 53%
    16:00 +19°C° 0 mm 2 mps 765 mmHg 58%
    17:00 +18°C° 0 mm 2 mps 765 mmHg 64%
    18:00 +16°C° 0 mm 2 mps 765 mmHg 69%
    19:00 +15°C° 0 mm 2 mps 765 mmHg 72%
    20:00 +14°C° 0 mm 2 mps 765 mmHg 76%
    21:00 +13°C° 0 mm 2 mps 766 mmHg 79%
    22:00 +13°C° 0 mm 2 mps 765 mmHg 82%
    23:00 +12°C° 0 mm 2 mps 765 mmHg 84%

    Day after tomorrow, 20 September, Friday

    Time Temperature Precipitation Wind Pressure Humidity
    00:00 +12°C° 0 mm 2 mps 765 mmHg 87%
    01:00 +10°C° 0 mm 2 mps 765 mmHg 89%
    02:00 +10°C° 0 mm 2 mps 764 mmHg 90%
    03:00 +10°C° 0 mm 2 mps 764 mmHg 92%
    04:00 +10°C° 0 mm 2 mps 764 mmHg 93%
    05:00 +10°C° 0 mm 2 mps 763 mmHg 93%
    06:00 +9°C° 0 mm 2 mps 763 mmHg 94%
    07:00 +11°C° 0 mm 3 mps 763 mmHg 84%
    08:00 +13°C° 0 mm 4 mps 763 mmHg 74%
    09:00 +15°C° 0 mm 5 mps 763 mmHg 64%
    10:00 +16°C° 0 mm 5 mps 762 mmHg 58%
    11:00 +17°C° 0 mm 6 mps 762 mmHg 51%
    12:00 +19°C° 0 mm 6 mps 761 mmHg 45%
    13:00 +20°C° 0 mm 6 mps 760 mmHg 43%
    14:00 +20°C° 0 mm 6 mps 760 mmHg 42%
    15:00 +20°C° 0 mm 6 mps 759 mmHg 40%
    16:00 +19°C° 0 mm 6 mps 758 mmHg 46%
    17:00 +16°C° 0 mm 5 mps 758 mmHg 51%
    18:00 +14°C° 0 mm 5 mps 757 mmHg 57%
    19:00 +14°C° 0 mm 5 mps 757 mmHg 58%
    20:00 +13°C° 0 mm 5 mps 757 mmHg 60%
    21:00 +13°C° 0 mm 5 mps 757 mmHg 62%
    22:00 +13°C° 0 mm 5 mps 756 mmHg 61%
    23:00 +13°C° 0 mm 5 mps 756 mmHg 61%

    21 September, Saturday

    Time Temperature Precipitation Wind Pressure Humidity
    00:00 +13°C° 0 mm 5 mps 755 mmHg 60%
    01:00 +12°C° 0 mm 5 mps 755 mmHg 61%
    02:00 +12°C° 0 mm 5 mps 754 mmHg 63%
    03:00 +10°C° 0 mm 5 mps 754 mmHg 64%
    04:00 +10°C° 0 mm 5 mps 753 mmHg 66%
    05:00 +10°C° 0 mm 5 mps 753 mmHg 68%
    06:00 +9°C° 0 mm 5 mps 752 mmHg 71%
    07:00 +12°C° 0 mm 5 mps 752 mmHg 68%
    08:00 +14°C° 0 mm 5 mps 752 mmHg 64%
    09:00 +15°C° 0 mm 6 mps 752 mmHg 61%
    10:00 +17°C° 0 mm 6 mps 751 mmHg 59%
    11:00 +20°C° 0 mm 6 mps 751 mmHg 56%
    12:00 +22°C° 0 mm 6 mps 750 mmHg 53%
    13:00 +22°C° 0 mm 6 mps 750 mmHg 54%
    14:00 +23°C° 0 mm 6 mps 749 mmHg 55%
    15:00 +24°C° 0 mm 6 mps 748 mmHg 56%
    16:00 +22°C° 0 mm 5 mps 748 mmHg 61%
    17:00 +21°C° 0 mm 5 mps 748 mmHg 66%
    18:00 +20°C° 0 mm 4 mps 748 mmHg 71%
    19:00 +19°C° 0.2 mm 4 mps 747 mmHg 73%
    20:00 +19°C° 0.2 mm 4 mps 747 mmHg 76%
    21:00 +18°C° 0.2 mm 4 mps 747 mmHg 78%
    22:00 +18°C° 0.7 mm 4 mps 747 mmHg 81%
    23:00 +18°C° 0.7 mm 4 mps 746 mmHg 84%

    22 September, Sunday

    Time Temperature Precipitation Wind Pressure Humidity
    00:00 +17°C° 0.7 mm 5 mps 746 mmHg 86%
    01:00 +18°C° 0.3 mm 4 mps 746 mmHg 88%
    02:00 +18°C° 0.3 mm 3 mps 746 mmHg 91%
    03:00 +18°C° 0.3 mm 3 mps 746 mmHg 93%
    04:00 +18°C° 0.4 mm 3 mps 746 mmHg 93%
    05:00 +17°C° 0.4 mm 3 mps 746 mmHg 94%
    06:00 +17°C° 0.4 mm 3 mps 746 mmHg 94%
    07:00 +17°C° 0.3 mm 4 mps 746 mmHg 89%
    08:00 +17°C° 0.3 mm 4 mps 747 mmHg 85%
    09:00 +17°C° 0.3 mm 5 mps 747 mmHg 80%
    10:00 +17°C° 0 mm 5 mps 747 mmHg 73%
    11:00 +19°C° 0 mm 5 mps 748 mmHg 67%
    12:00 +20°C° 0 mm 6 mps 748 mmHg 60%
    13:00 +20°C° 0 mm 6 mps 748 mmHg 60%
    14:00 +20°C° 0 mm 6 mps 748 mmHg 59%
    15:00 +20°C° 0 mm 6 mps 748 mmHg 59%
    16:00 +17°C° 0 mm 5 mps 748 mmHg 64%
    17:00 +16°C° 0 mm 5 mps 748 mmHg 70%
    18:00 +15°C° 0 mm 4 mps 748 mmHg 75%
    19:00 +14°C° 0 mm 4 mps 749 mmHg 79%
    20:00 +13°C° 0 mm 3 mps 749 mmHg 83%
    21:00 +12°C° 0 mm 3 mps 750 mmHg 88%
    22:00 +12°C° 0 mm 3 mps 750 mmHg 89%
    23:00 +11°C° 0 mm 3 mps 750 mmHg 91%

    23 September, Monday

    Time Temperature Precipitation Wind Pressure Humidity
    00:00 +12°C° 0 mm 2 mps 751 mmHg 93%
    01:00 +10°C° 0 mm 2 mps 751 mmHg 93%
    02:00 +10°C° 0 mm 2 mps 751 mmHg 94%
    03:00 +10°C° 0 mm 2 mps 751 mmHg 94%
    04:00 +10°C° 0 mm 2 mps 751 mmHg 94%
    05:00 +10°C° 0 mm 2 mps 751 mmHg 94%
    06:00 +10°C° 0 mm 2 mps 751 mmHg 94%
    07:00 +12°C° 0 mm 3 mps 751 mmHg 88%
    08:00 +14°C° 0 mm 4 mps 751 mmHg 82%
    09:00 +15°C° 0 mm 5 mps 751 mmHg 77%
    10:00 +15°C° 0.1 mm 6 mps 750 mmHg 79%
    11:00 +15°C° 0.1 mm 6 mps 750 mmHg 80%
    12:00 +15°C° 0.1 mm 6 mps 750 mmHg 82%
    13:00 +15°C° 0.4 mm 6 mps 749 mmHg 86%
    14:00 +15°C° 0.4 mm 6 mps 749 mmHg 89%
    15:00 +15°C° 0.4 mm 5 mps 748 mmHg 93%
    16:00 +15°C° 0.2 mm 5 mps 748 mmHg 94%
    17:00 +17°C° 0.2 mm 4 mps 748 mmHg 95%
    18:00 +17°C° 0.2 mm 4 mps 748 mmHg 96%
    19:00 +17°C° 0.1 mm 4 mps 749 mmHg 96%
    20:00 +17°C° 0.1 mm 4 mps 749 mmHg 95%
    21:00 +17°C° 0.1 mm 4 mps 750 mmHg 95%
    22:00 +17°C° 0 mm 4 mps 750 mmHg 96%
    23:00 +17°C° 0 mm 4 mps 750 mmHg 96%
    Show more